sat.trackr.live / text

‹ back to catalog

STARLINK-36174

NORAD 67166 · 2025-303D

PAYLOAD ACTIVE UNKNOWN

§ Identity

Operator
Country
US
Launch date
2025-12-17
Launch site
AFETR
Launch vehicle
Mass (kg)
RCS (m²)

Purposes: comms

External: N2YO · Heavens-Above · Gunter

§ Orbital elements

Epoch: 2026-05-24T23:22:55.138656Z

Period
94.27 min
Inclination
43.0005°
Eccentricity
0.0001505
Mean motion
15.27587160 rev/d
Perigee alt
482.0 km
Apogee alt
484.1 km
Semi-major
6,861.2 km
B*
5.0194e-4
RAAN
239.7526°
Arg perigee
269.0869°
Mean anomaly
90.9811°
Rev number
2,440

§ Raw data

STARLINK-361741 67166U 25303D   26144.97424929  .00013579  00000+0  50194-3 0  99982 67166  43.0005 239.7526 0001505 269.0869  90.9811 15.27587160 24405

JSON: /api/v1/satellites/67166 · /tle

For live sub-satellite position, see the globe view (requires WebGL).

§ Visibility from observer

Set your observer location to see the next 7 days of passes ≥ 10°. The values pass through the URL so the page stays shareable.

No JS? Fill the form by hand. The geolocation button needs JavaScript.